Jrs Mira — V2FS4 — position and weather

sailwx.info

Track history (hours):
 
Tides and Currents Weather Stations Pressure Air Temp Water Temp Dewpoint Dewpoint Depression Visibility Wind Speed Wind Dir Waves Ship Positions

Jrs Mira

Last reported at 2014-Oct-22 07:23 UTC. Time now 2014-Oct-22 07:59 UTC.
Position N 54°35' W 001°15'.

Length 107 m; draft 5.3 m.

Type: Cargo ship. MMSI: 305780000.

Date/timePositionNaut miles runAvg speedWind from/ knotsBaromVisibWave heightAir tempDewpointWater temp
2014-Oct-22 07:23N 54°35' W 001°15'5 0.1
2014-Oct-20 17:23N 54°39' W 001°08'4 4.4
2014-Oct-20 16:32N 54°40' W 001°02'6 6.2
2014-Oct-20 15:34N 54°39' W 000°52'12 8.8
2014-Oct-20 14:10N 54°35' W 000°32'710.9
2014-Oct-20 13:33N 54°30' W 000°24'1111.1
2014-Oct-20 12:33N 54°22' W 000°11'1111.0
2014-Oct-20 11:33N 54°14' E 000°02'1111.4
2014-Oct-20 10:33N 54°06' E 000°16'1212.0
2014-Oct-20 09:33N 53°57' E 000°29'1212.3
2014-Oct-20 08:33N 53°49' E 000°45'4811.7
2014-Oct-20 04:29N 53°11' E 001°33'1010.7
2014-Oct-20 03:33N 53°02' E 001°41'1110.8
2014-Oct-20 02:33N 52°56' E 001°55'2411.9
2014-Oct-20 00:33N 52°35' E 002°15'5012.2
2014-Oct-19 20:25N 51°47' E 002°35'1112.3
2014-Oct-19 19:33N 51°38' E 002°24'1212.2
2014-Oct-19 18:34N 51°28' E 002°13'1110.9
2014-Oct-19 17:33N 51°18' E 002°06'2110.6
2014-Oct-19 15:33N 51°04' E 001°42'1111.3
2014-Oct-19 14:33N 50°55' E 001°29'1211.5
2014-Oct-19 13:32N 50°44' E 001°23'1611.6
2014-Oct-19 12:11N 50°33' E 001°06'31611.9
2014-Oct-18 09:33N 48°09' W 006°05'  
2014-Oct-16 01:28N 38°37' W 009°25'8 8.7
2014-Oct-16 00:33N 38°41' W 009°16'3 3.4
2014-Oct-15 23:33N 38°41' W 009°12'0 0.0
2014-Oct-15 22:33N 38°41' W 009°12'0 0.0
2014-Oct-15 21:33N 38°41' W 009°12'0 0.0
2014-Oct-15 20:33N 38°41' W 009°12'0 0.0
2014-Oct-15 19:33N 38°41' W 009°12'0 0.1
2014-Oct-15 18:33N 38°41' W 009°12'1 0.5
2014-Oct-15 17:31N 38°41' W 009°11'0 0.0
2014-Oct-15 16:31N 38°41' W 009°11'0 0.0
2014-Oct-15 15:31N 38°41' W 009°11'0 0.0
2014-Oct-15 14:31N 38°41' W 009°11'0 0.0
2014-Oct-15 13:31N 38°41' W 009°11'0 0.0
2014-Oct-15 12:31N 38°41' W 009°11'0 0.0
2014-Oct-15 11:31N 38°41' W 009°11'0 0.0
2014-Oct-15 10:31N 38°41' W 009°11'0 0.0
2014-Oct-15 09:31N 38°41' W 009°11'0 0.0
2014-Oct-15 08:31N 38°41' W 009°11'0 0.0
2014-Oct-15 07:31N 38°41' W 009°11'0 0.0
2014-Oct-15 06:31N 38°41' W 009°11'0 0.0
2014-Oct-15 05:31N 38°41' W 009°11'0 0.0
2014-Oct-15 04:31N 38°41' W 009°11'0 0.0
2014-Oct-15 03:31N 38°41' W 009°11'0 0.0
2014-Oct-15 02:31N 38°41' W 009°11'0 0.0
2014-Oct-15 01:31N 38°41' W 009°11'0 0.0
2014-Oct-15 00:31N 38°41' W 009°11'0 0.0
2014-Oct-14 23:31N 38°41' W 009°11'0 0.0
2014-Oct-14 22:31N 38°41' W 009°11'0 0.0
2014-Oct-14 21:31N 38°41' W 009°11'0 0.0
2014-Oct-14 20:31N 38°41' W 009°11'0 0.0
2014-Oct-14 19:31N 38°41' W 009°11'0 0.0
2014-Oct-14 18:31N 38°41' W 009°11'0 0.0
2014-Oct-14 17:31N 38°41' W 009°11'0 0.0
2014-Oct-14 16:31N 38°41' W 009°11'0 0.0
2014-Oct-14 15:31N 38°41' W 009°11'1 1.3
2014-Oct-14 14:33N 38°41' W 009°13'8 7.7
2014-Oct-14 13:30N 38°38' W 009°22'  
Track history (hours):
 
Tides and Currents Weather Stations Pressure Air Temp Water Temp Dewpoint Dewpoint Depression Visibility Wind Speed Wind Dir Waves Ship Positions

Jrs Mira

Last reported at 2014-Oct-22 07:23 UTC. Time now 2014-Oct-22 07:59 UTC.
Position N 54°35' W 001°15'.

Length 107 m; draft 5.3 m.

Type: Cargo ship. MMSI: 305780000.

Date/timePositionNaut miles runAvg speedWind from/ knotsBaromVisibWave heightAir tempDewpointWater temp
2014-Oct-22 07:23N 54°35' W 001°15'5 0.1
2014-Oct-20 17:23N 54°39' W 001°08'4 4.4
2014-Oct-20 16:32N 54°40' W 001°02'6 6.2
2014-Oct-20 15:34N 54°39' W 000°52'12 8.8
2014-Oct-20 14:10N 54°35' W 000°32'710.9
2014-Oct-20 13:33N 54°30' W 000°24'1111.1
2014-Oct-20 12:33N 54°22' W 000°11'1111.0
2014-Oct-20 11:33N 54°14' E 000°02'1111.4
2014-Oct-20 10:33N 54°06' E 000°16'1212.0
2014-Oct-20 09:33N 53°57' E 000°29'1212.3
2014-Oct-20 08:33N 53°49' E 000°45'4811.7
2014-Oct-20 04:29N 53°11' E 001°33'1010.7
2014-Oct-20 03:33N 53°02' E 001°41'1110.8
2014-Oct-20 02:33N 52°56' E 001°55'2411.9
2014-Oct-20 00:33N 52°35' E 002°15'5012.2
2014-Oct-19 20:25N 51°47' E 002°35'1112.3
2014-Oct-19 19:33N 51°38' E 002°24'1212.2
2014-Oct-19 18:34N 51°28' E 002°13'1110.9
2014-Oct-19 17:33N 51°18' E 002°06'2110.6
2014-Oct-19 15:33N 51°04' E 001°42'1111.3
2014-Oct-19 14:33N 50°55' E 001°29'1211.5
2014-Oct-19 13:32N 50°44' E 001°23'1611.6
2014-Oct-19 12:11N 50°33' E 001°06'31611.9
2014-Oct-18 09:33N 48°09' W 006°05'  
2014-Oct-16 01:28N 38°37' W 009°25'8 8.7
2014-Oct-16 00:33N 38°41' W 009°16'3 3.4
2014-Oct-15 23:33N 38°41' W 009°12'0 0.0
2014-Oct-15 22:33N 38°41' W 009°12'0 0.0
2014-Oct-15 21:33N 38°41' W 009°12'0 0.0
2014-Oct-15 20:33N 38°41' W 009°12'0 0.0
2014-Oct-15 19:33N 38°41' W 009°12'0 0.1
2014-Oct-15 18:33N 38°41' W 009°12'1 0.5
2014-Oct-15 17:31N 38°41' W 009°11'0 0.0
2014-Oct-15 16:31N 38°41' W 009°11'0 0.0
2014-Oct-15 15:31N 38°41' W 009°11'0 0.0
2014-Oct-15 14:31N 38°41' W 009°11'0 0.0
2014-Oct-15 13:31N 38°41' W 009°11'0 0.0
2014-Oct-15 12:31N 38°41' W 009°11'0 0.0
2014-Oct-15 11:31N 38°41' W 009°11'0 0.0
2014-Oct-15 10:31N 38°41' W 009°11'0 0.0
2014-Oct-15 09:31N 38°41' W 009°11'0 0.0
2014-Oct-15 08:31N 38°41' W 009°11'0 0.0
2014-Oct-15 07:31N 38°41' W 009°11'0 0.0
2014-Oct-15 06:31N 38°41' W 009°11'0 0.0
2014-Oct-15 05:31N 38°41' W 009°11'0 0.0
2014-Oct-15 04:31N 38°41' W 009°11'0 0.0
2014-Oct-15 03:31N 38°41' W 009°11'0 0.0
2014-Oct-15 02:31N 38°41' W 009°11'0 0.0
2014-Oct-15 01:31N 38°41' W 009°11'0 0.0
2014-Oct-15 00:31N 38°41' W 009°11'0 0.0
2014-Oct-14 23:31N 38°41' W 009°11'0 0.0
2014-Oct-14 22:31N 38°41' W 009°11'0 0.0
2014-Oct-14 21:31N 38°41' W 009°11'0 0.0
2014-Oct-14 20:31N 38°41' W 009°11'0 0.0
2014-Oct-14 19:31N 38°41' W 009°11'0 0.0
2014-Oct-14 18:31N 38°41' W 009°11'0 0.0
2014-Oct-14 17:31N 38°41' W 009°11'0 0.0
2014-Oct-14 16:31N 38°41' W 009°11'0 0.0
2014-Oct-14 15:31N 38°41' W 009°11'1 1.3
2014-Oct-14 14:33N 38°41' W 009°13'8 7.7
2014-Oct-14 13:30N 38°38' W 009°22'  

Dump ship's entire track history